QPF
0.01 0.02 0.07 0.11 0.09 0.08 0.08 0.07 0.06 0.09 0.08 0.09 0.09 0.06 0.07 0.09 0.10 0.11 0.11 0.12 0.11 0.10 0.07 0.07 0.06 0.07 0.08 0.07 0.05 0.03 0.03 0.04 0.04 0.04 0.04 0.02 0.03 0.03 0.02 0.02 0.01 0.02 0.02
0.01 0.03 0.08 0.13 0.11 0.10 0.08 0.07 0.07 0.08 0.07 0.07 0.08 0.07 0.05 0.06 0.08 0.11 0.12 0.14 0.14 0.11 0.07 0.06 0.07 0.08 0.08 0.08 0.07 0.05 0.04 0.04 0.04 0.03 0.02 0.02 0.03 0.03 0.02 0.02 0.02 0.02 0.03
0.01 0.02 0.07 0.10 0.10 0.11 0.09 0.07 0.05 0.04 0.04 0.05 0.06 0.07 0.06 0.07 0.07 0.09 0.10 0.12 0.12 0.08 0.06 0.05 0.05 0.07 0.08 0.09 0.07 0.06 0.06 0.05 0.04 0.03 0.01 0.02 0.02 0.02 0.02 0.03 0.04 0.03 0.03
0.01 0.01 0.03 0.07 0.09 0.10 0.11 0.08 0.06 0.05 0.04 0.03 0.05 0.07 0.07 0.07 0.07 0.07 0.07 0.09 0.08 0.07 0.04 0.03 0.03 0.04 0.05 0.06 0.06 0.06 0.06 0.06 0.05 0.02 0.01 0.01 0.03 0.04 0.05 0.05 0.03 0.04 0.04
0.01 0.01 0.03 0.06 0.07 0.08 0.10 0.10 0.08 0.07 0.05 0.03 0.04 0.07 0.07 0.06 0.06 0.06 0.06 0.06 0.06 0.07 0.06 0.04 0.04 0.04 0.04 0.05 0.05 0.05 0.06 0.05 0.03 0.02 0.01 0.02 0.04 0.05 0.05 0.05 0.04 0.05 0.07
0.01 0.02 0.03 0.05 0.05 0.04 0.06 0.07 0.07 0.09 0.07 0.05 0.05 0.06 0.07 0.07 0.06 0.06 0.06 0.06 0.05 0.05 0.05 0.04 0.05 0.06 0.06 0.06 0.07 0.06 0.06 0.05 0.04 0.03 0.02 0.02 0.03 0.04 0.04 0.05 0.04 0.05 0.07
0.01 0.02 0.03 0.04 0.04 0.02 0.04 0.05 0.07 0.10 0.09 0.07 0.06 0.06 0.07 0.07 0.06 0.06 0.07 0.07 0.06 0.05 0.05 0.05 0.04 0.04 0.06 0.06 0.07 0.06 0.04 0.04 0.05 0.05 0.03 0.02 0.04 0.06 0.05 0.05 0.06 0.07 0.06
0.02 0.02 0.02 0.05 0.05 0.04 0.03 0.03 0.05 0.06 0.07 0.07 0.07 0.06 0.06 0.07 0.06 0.06 0.06 0.05 0.03 0.03 0.04 0.04 0.03 0.04 0.05 0.05 0.06 0.04 0.03 0.02 0.03 0.03 0.03 0.04 0.04 0.07 0.07 0.08 0.07 0.07 0.07
0.02 0.02 0.02 0.02 0.04 0.05 0.04 0.03 0.02 0.02 0.03 0.04 0.04 0.03 0.03 0.04 0.05 0.05 0.05 0.05 0.05 0.05 0.04 0.03 0.02 0.03 0.04 0.05 0.05 0.04 0.04 0.03 0.04 0.05 0.04 0.04 0.04 0.07 0.07 0.07 0.06 0.06 0.07
0.02 0.02 0.03 0.03 0.03 0.04 0.03 0.03 0.02 0.02 0.02 0.02 0.02 0.02 0.02 0.02 0.03 0.04 0.05 0.06 0.06 0.05 0.04 0.03 0.03 0.04 0.04 0.05 0.04 0.04 0.04 0.03 0.04 0.05 0.06 0.05 0.05 0.07 0.08 0.06 0.05 0.05 0.07
0.02 0.02 0.02 0.03 0.04 0.04 0.03 0.02 0.02 0.03 0.02 0.02 0.02 0.02 0.01 0.01 0.01 0.02 0.03 0.03 0.04 0.04 0.03 0.03 0.04 0.04 0.04 0.04 0.04 0.03 0.03 0.03 0.03 0.03 0.05 0.06 0.07 0.09 0.09 0.07 0.07 0.07 0.08
0.02 0.01 0.01 0.02 0.03 0.03 0.02 0.03 0.03 0.02 0.01 0.01 0.02 0.02 0.02 0.01 0.01 0.01 0.02 0.02 0.03 0.02 0.02 0.02 0.03 0.03 0.02 0.03 0.03 0.03 0.03 0.02 0.02 0.02 0.04 0.07 0.08 0.10 0.10 0.11 0.11 0.10 0.11
0.01 0.01 0.01 0.01 0.02 0.02 0.03 0.03 0.03 0.02 0.01 0.02 0.02 0.02 0.03 0.02 0.02 0.02 0.02 0.01 0.01 0.01 0.01 0.01 0.02 0.03 0.02 0.02 0.03 0.03 0.03 0.03 0.04 0.03 0.04 0.08 0.09 0.12 0.14 0.16 0.15 0.13 0.10
0.02 0.01 0.01 0.01 0.01 0.02 0.02 0.02 0.02 0.03 0.03 0.03 0.02 0.02 0.03 0.02 0.02 0.03 0.04 0.03 0.02 0.02 0.02 0.02 0.03 0.06 0.05 0.05 0.06 0.08 0.09 0.10 0.07 0.06 0.08 0.12 0.15 0.15 0.14 0.12 0.10 0.09 0.09
0.02 0.02 0.01 0.01 0.01 0.01 0.01 0.01 0.01 0.02 0.02 0.02 0.02 0.02 0.03 0.03 0.03 0.03 0.04 0.03 0.02 0.03 0.04 0.05 0.07 0.11 0.09 0.07 0.07 0.10 0.13 0.15 0.14 0.11 0.10 0.12 0.13 0.14 0.12 0.11 0.10 0.09 0.10
0.02 0.03 0.02 0.02 0.01 0.01 0.01 0.01 0.01 0.02 0.01 0.01 0.02 0.03 0.04 0.04 0.04 0.06 0.07 0.05 0.02 0.01 0.02 0.02 0.04 0.09 0.08 0.04 0.03 0.07 0.13 0.17 0.17 0.14 0.13 0.12 0.13 0.13 0.12 0.11 0.10 0.10 0.10
0.02 0.03 0.04 0.03 0.01 0.02 0.02 0.01 0.01 0.01 0.01 0.01 0.01 0.02 0.03 0.06 0.07 0.07 0.09 0.10 0.06 0.02 0.02 0.02 0.02 0.06 0.07 0.03 0.02 0.05 0.13 0.20 0.21 0.18 0.16 0.16 0.17 0.14 0.12 0.10 0.09 0.10 0.10
0.04 0.04 0.03 0.03 0.02 0.02 0.04 0.03 0.03 0.02 0.01 0.01 0.01 0.01 0.02 0.03 0.05 0.08 0.06 0.07 0.06 0.04 0.03 0.03 0.04 0.06 0.09 0.07 0.05 0.05 0.09 0.14 0.17 0.17 0.17 0.18 0.17 0.13 0.10 0.08 0.08 0.09 0.11
0.03 0.04 0.04 0.04 0.03 0.05 0.10 0.12 0.08 0.06 0.03 0.02 0.01 0.00 0.01 0.01 0.02 0.03 0.03 0.03 0.03 0.03 0.02 0.02 0.04 0.06 0.10 0.10 0.07 0.06 0.06 0.08 0.09 0.11 0.14 0.15 0.14 0.11 0.09 0.07 0.06 0.06 0.09
0.03 0.02 0.03 0.03 0.04 0.04 0.07 0.07 0.06 0.04 0.04 0.03 0.02 0.01 0.01 0.01 0.02 0.03 0.03 0.03 0.03 0.02 0.01 0.01 0.02 0.04 0.09 0.12 0.08 0.05 0.05 0.05 0.07 0.09 0.10 0.10 0.09 0.07 0.05 0.05 0.05 0.06 0.07
0.02 0.02 0.02 0.03 0.04 0.05 0.04 0.04 0.04 0.03 0.03 0.02 0.02 0.02 0.02 0.02 0.02 0.03 0.03 0.03 0.03 0.02 0.01 0.01 0.02 0.02 0.05 0.07 0.07 0.04 0.03 0.03 0.06 0.07 0.07 0.05 0.04 0.04 0.03 0.02 0.03 0.06 0.05
0.03 0.03 0.03 0.03 0.03 0.03 0.02 0.02 0.02 0.02 0.02 0.02 0.02 0.02 0.03 0.02 0.02 0.03 0.03 0.03 0.02 0.02 0.02 0.02 0.02 0.03 0.04 0.05 0.06 0.07 0.05 0.04 0.05 0.05 0.05 0.04 0.03 0.03 0.02 0.02 0.03 0.04 0.04
0.04 0.03 0.03 0.02 0.02 0.02 0.02 0.03 0.02 0.01 0.01 0.02 0.01 0.02 0.02 0.03 0.02 0.02 0.02 0.02 0.01 0.01 0.01 0.02 0.02 0.02 0.04 0.04 0.04 0.06 0.06 0.05 0.04 0.05 0.05 0.04 0.05 0.05 0.03 0.01 0.02 0.04 0.05
0.03 0.04 0.02 0.01 0.01 0.02 0.01 0.02 0.02 0.02 0.01 0.01 0.01 0.02 0.03 0.04 0.04 0.04 0.03 0.02 0.01 0.01 0.01 0.01 0.01 0.01 0.02 0.03 0.03 0.04 0.05 0.04 0.04 0.03 0.04 0.03 0.04 0.04 0.03 0.02 0.01 0.02 0.04
0.03 0.03 0.02 0.01 0.01 0.01 0.01 0.00 0.01 0.02 0.02 0.02 0.02 0.02 0.02 0.02 0.03 0.04 0.04 0.03 0.02 0.02 0.02 0.02 0.01 0.01 0.01 0.02 0.03 0.03 0.03 0.03 0.03 0.03 0.03 0.02 0.03 0.02 0.02 0.02 0.01 0.01 0.02
0.03 0.02 0.01 0.01 0.01 0.01 0.01 0.01 0.01 0.01 0.01 0.01 0.01 0.02 0.02 0.02 0.02 0.03 0.03 0.03 0.03 0.03 0.02 0.02 0.02 0.01 0.01 0.01 0.02 0.03 0.03 0.02 0.03 0.03 0.02 0.02 0.02 0.03 0.02 0.01 0.01 0.01 0.01
MSLP
1012.92 1012.64 1012.47 1012.45 1012.55 1012.75 1012.96 1013.16 1013.28 1013.33 1013.32 1013.28 1013.26 1013.28 1013.36 1013.49 1013.65 1013.80 1013.91 1013.96 1013.95 1013.89 1013.81 1013.72 1013.65 1013.59 1013.53 1013.47 1013.38 1013.24 1013.06 1012.85 1012.61 1012.36 1012.11 1011.88 1011.65 1011.42 1011.19 1010.94 1010.68 1010.42 1010.16
1012.89 1012.70 1012.62 1012.69 1012.87 1013.12 1013.38 1013.59 1013.72 1013.76 1013.74 1013.70 1013.68 1013.71 1013.81 1013.95 1014.12 1014.27 1014.38 1014.42 1014.41 1014.36 1014.28 1014.20 1014.14 1014.09 1014.04 1013.96 1013.83 1013.66 1013.44 1013.18 1012.91 1012.65 1012.40 1012.18 1011.97 1011.75 1011.52 1011.26 1010.98 1010.68 1010.37
1012.86 1012.76 1012.77 1012.92 1013.18 1013.48 1013.77 1014.00 1014.13 1014.19 1014.18 1014.15 1014.15 1014.20 1014.30 1014.45 1014.60 1014.74 1014.83 1014.86 1014.84 1014.79 1014.73 1014.68 1014.64 1014.60 1014.55 1014.45 1014.29 1014.07 1013.80 1013.50 1013.19 1012.91 1012.67 1012.46 1012.28 1012.09 1011.87 1011.61 1011.31 1010.97 1010.62
1012.84 1012.81 1012.91 1013.14 1013.44 1013.78 1014.10 1014.35 1014.50 1014.58 1014.60 1014.60 1014.63 1014.70 1014.82 1014.96 1015.10 1015.22 1015.28 1015.29 1015.27 1015.22 1015.19 1015.17 1015.16 1015.14 1015.08 1014.96 1014.76 1014.48 1014.16 1013.80 1013.47 1013.18 1012.94 1012.76 1012.60 1012.44 1012.25 1011.99 1011.68 1011.31 1010.92
1012.83 1012.88 1013.04 1013.32 1013.67 1014.04 1014.37 1014.64 1014.82 1014.92 1014.98 1015.03 1015.10 1015.21 1015.34 1015.49 1015.62 1015.70 1015.74 1015.74 1015.71 1015.68 1015.67 1015.68 1015.69 1015.69 1015.62 1015.48 1015.24 1014.91 1014.53 1014.13 1013.77 1013.47 1013.24 1013.08 1012.96 1012.83 1012.66 1012.42 1012.10 1011.71 1011.29
1012.86 1012.97 1013.18 1013.50 1013.88 1014.26 1014.61 1014.89 1015.09 1015.23 1015.33 1015.43 1015.55 1015.70 1015.86 1016.01 1016.13 1016.21 1016.23 1016.21 1016.19 1016.17 1016.18 1016.21 1016.25 1016.25 1016.17 1016.00 1015.72 1015.35 1014.92 1014.49 1014.10 1013.80 1013.59 1013.45 1013.36 1013.26 1013.11 1012.88 1012.56 1012.16 1011.72
1012.95 1013.10 1013.35 1013.70 1014.09 1014.48 1014.83 1015.12 1015.34 1015.51 1015.66 1015.81 1015.98 1016.16 1016.35 1016.52 1016.64 1016.71 1016.73 1016.71 1016.69 1016.69 1016.71 1016.76 1016.80 1016.80 1016.71 1016.51 1016.20 1015.79 1015.34 1014.89 1014.49 1014.19 1014.00 1013.88 1013.81 1013.73 1013.60 1013.38 1013.06 1012.66 1012.20
1013.12 1013.29 1013.57 1013.93 1014.32 1014.71 1015.06 1015.36 1015.59 1015.79 1015.97 1016.16 1016.36 1016.59 1016.80 1016.99 1017.12 1017.20 1017.22 1017.21 1017.20 1017.20 1017.23 1017.28 1017.32 1017.31 1017.20 1016.98 1016.65 1016.23 1015.77 1015.32 1014.93 1014.65 1014.47 1014.37 1014.31 1014.24 1014.11 1013.89 1013.57 1013.17 1012.72
1013.36 1013.55 1013.84 1014.20 1014.59 1014.98 1015.32 1015.61 1015.85 1016.06 1016.26 1016.48 1016.71 1016.96 1017.19 1017.40 1017.55 1017.64 1017.67 1017.68 1017.67 1017.68 1017.72 1017.76 1017.78 1017.75 1017.62 1017.39 1017.06 1016.64 1016.20 1015.78 1015.43 1015.17 1015.01 1014.92 1014.86 1014.78 1014.64 1014.41 1014.09 1013.70 1013.25
1013.65 1013.84 1014.13 1014.49 1014.88 1015.25 1015.59 1015.87 1016.11 1016.33 1016.54 1016.76 1017.01 1017.26 1017.51 1017.73 1017.89 1018.00 1018.06 1018.08 1018.09 1018.11 1018.14 1018.17 1018.17 1018.12 1017.98 1017.74 1017.42 1017.04 1016.64 1016.26 1015.96 1015.74 1015.60 1015.52 1015.45 1015.36 1015.20 1014.96 1014.63 1014.24 1013.81
1013.95 1014.14 1014.43 1014.78 1015.15 1015.51 1015.84 1016.12 1016.35 1016.56 1016.77 1017.00 1017.24 1017.49 1017.74 1017.97 1018.15 1018.28 1018.36 1018.41 1018.44 1018.47 1018.49 1018.51 1018.49 1018.42 1018.27 1018.04 1017.75 1017.42 1017.08 1016.77 1016.52 1016.35 1016.24 1016.16 1016.08 1015.96 1015.78 1015.52 1015.19 1014.80 1014.40
1014.23 1014.42 1014.69 1015.02 1015.38 1015.73 1016.04 1016.31 1016.55 1016.76 1016.96 1017.17 1017.41 1017.65 1017.90 1018.12 1018.32 1018.47 1018.59 1018.67 1018.72 1018.76 1018.79 1018.80 1018.76 1018.68 1018.53 1018.32 1018.07 1017.80 1017.53 1017.29 1017.12 1016.99 1016.90 1016.83 1016.73 1016.59 1016.38 1016.11 1015.77 1015.40 1015.02
1014.47 1014.65 1014.90 1015.21 1015.54 1015.87 1016.18 1016.45 1016.68 1016.89 1017.09 1017.30 1017.52 1017.75 1017.98 1018.21 1018.42 1018.60 1018.75 1018.87 1018.96 1019.02 1019.06 1019.06 1019.02 1018.94 1018.80 1018.61 1018.40 1018.19 1017.99 1017.83 1017.72 1017.64 1017.58 1017.51 1017.40 1017.24 1017.01 1016.72 1016.38 1016.03 1015.68
1014.70 1014.85 1015.07 1015.35 1015.65 1015.96 1016.25 1016.52 1016.76 1016.98 1017.18 1017.38 1017.59 1017.81 1018.04 1018.27 1018.49 1018.69 1018.88 1019.04 1019.17 1019.27 1019.33 1019.35 1019.31 1019.23 1019.10 1018.94 1018.77 1018.61 1018.48 1018.38 1018.33 1018.29 1018.25 1018.19 1018.07 1017.89 1017.64 1017.34 1017.01 1016.68 1016.36
1014.95 1015.08 1015.25 1015.48 1015.74 1016.02 1016.31 1016.58 1016.83 1017.05 1017.26 1017.47 1017.67 1017.88 1018.10 1018.32 1018.55 1018.78 1019.01 1019.21 1019.39 1019.53 1019.63 1019.67 1019.65 1019.57 1019.46 1019.32 1019.18 1019.06 1018.98 1018.94 1018.92 1018.92 1018.90 1018.84 1018.71 1018.52 1018.26 1017.96 1017.64 1017.33 1017.05
1015.30 1015.38 1015.50 1015.67 1015.89 1016.13 1016.40 1016.66 1016.92 1017.16 1017.38 1017.59 1017.78 1017.98 1018.18 1018.40 1018.64 1018.88 1019.14 1019.39 1019.62 1019.81 1019.95 1020.03 1020.04 1019.98 1019.88 1019.76 1019.65 1019.56 1019.50 1019.49 1019.50 1019.52 1019.51 1019.45 1019.32 1019.13 1018.87 1018.57 1018.26 1017.97 1017.71
1015.82 1015.84 1015.90 1016.00 1016.16 1016.36 1016.59 1016.84 1017.09 1017.34 1017.56 1017.77 1017.95 1018.13 1018.32 1018.52 1018.75 1019.00 1019.28 1019.57 1019.85 1020.10 1020.29 1020.41 1020.46 1020.43 1020.36 1020.25 1020.15 1020.08 1020.03 1020.03 1020.05 1020.08 1020.08 1020.02 1019.90 1019.71 1019.45 1019.16 1018.86 1018.58 1018.33
1016.53 1016.50 1016.48 1016.51 1016.60 1016.74 1016.92 1017.15 1017.38 1017.62 1017.83 1018.02 1018.18 1018.34 1018.49 1018.67 1018.88 1019.13 1019.42 1019.74 1020.06 1020.36 1020.61 1020.78 1020.88 1020.89 1020.85 1020.76 1020.67 1020.60 1020.56 1020.56 1020.58 1020.60 1020.61 1020.56 1020.45 1020.27 1020.03 1019.75 1019.45 1019.17 1018.92
1017.46 1017.36 1017.27 1017.22 1017.23 1017.29 1017.42 1017.59 1017.79 1018.00 1018.19 1018.34 1018.47 1018.59 1018.70 1018.83 1019.01 1019.24 1019.53 1019.87 1020.23 1020.57 1020.88 1021.11 1021.26 1021.32 1021.31 1021.26 1021.18 1021.12 1021.07 1021.07 1021.08 1021.11 1021.11 1021.08 1020.98 1020.82 1020.60 1020.33 1020.05 1019.77 1019.52
1018.55 1018.39 1018.23 1018.10 1018.02 1018.00 1018.06 1018.17 1018.31 1018.47 1018.61 1018.72 1018.80 1018.86 1018.92 1019.00 1019.14 1019.34 1019.62 1019.96 1020.33 1020.72 1021.07 1021.36 1021.57 1021.68 1021.72 1021.70 1021.64 1021.59 1021.55 1021.54 1021.56 1021.59 1021.60 1021.58 1021.51 1021.37 1021.18 1020.93 1020.66 1020.39 1020.12
1019.73 1019.52 1019.29 1019.09 1018.93 1018.84 1018.81 1018.84 1018.91 1019.00 1019.08 1019.14 1019.16 1019.16 1019.16 1019.19 1019.27 1019.43 1019.68 1020.00 1020.38 1020.79 1021.18 1021.52 1021.78 1021.95 1022.04 1022.06 1022.03 1022.00 1021.97 1021.97 1021.99 1022.03 1022.06 1022.07 1022.03 1021.92 1021.76 1021.55 1021.30 1021.03 1020.77
1020.92 1020.67 1020.39 1020.12 1019.90 1019.72 1019.62 1019.57 1019.56 1019.58 1019.60 1019.58 1019.55 1019.49 1019.43 1019.40 1019.42 1019.53 1019.74 1020.03 1020.40 1020.80 1021.21 1021.58 1021.89 1022.11 1022.24 1022.30 1022.32 1022.31 1022.30 1022.32 1022.35 1022.41 1022.47 1022.51 1022.51 1022.45 1022.34 1022.17 1021.95 1021.71 1021.45
1022.04 1021.75 1021.44 1021.14 1020.86 1020.62 1020.45 1020.32 1020.24 1020.19 1020.13 1020.06 1019.96 1019.85 1019.74 1019.65 1019.63 1019.68 1019.83 1020.08 1020.41 1020.79 1021.19 1021.56 1021.89 1022.14 1022.31 1022.41 1022.46 1022.48 1022.51 1022.55 1022.61 1022.69 1022.78 1022.86 1022.92 1022.92 1022.86 1022.74 1022.57 1022.36 1022.13
1023.02 1022.72 1022.41 1022.08 1021.78 1021.50 1021.27 1021.08 1020.94 1020.81 1020.70 1020.57 1020.42 1020.27 1020.11 1019.98 1019.90 1019.89 1019.98 1020.16 1020.43 1020.76 1021.12 1021.47 1021.79 1022.04 1022.24 1022.36 1022.45 1022.50 1022.56 1022.63 1022.72 1022.84 1022.96 1023.09 1023.20 1023.26 1023.27 1023.21 1023.10 1022.94 1022.75
1023.85 1023.57 1023.27 1022.95 1022.64 1022.34 1022.07 1021.84 1021.64 1021.46 1021.29 1021.11 1020.93 1020.73 1020.54 1020.37 1020.24 1020.17 1020.19 1020.30 1020.48 1020.73 1021.02 1021.32 1021.59 1021.83 1022.02 1022.16 1022.27 1022.35 1022.44 1022.54 1022.66 1022.81 1022.99 1023.16 1023.32 1023.44 1023.51 1023.53 1023.49 1023.39 1023.26
1024.56 1024.30 1024.03 1023.74 1023.44 1023.14 1022.85 1022.58 1022.33 1022.11 1021.89 1021.68 1021.46 1021.24 1021.01 1020.81 1020.63 1020.51 1020.45 1020.46 1020.55 1020.70 1020.89 1021.10 1021.32 1021.51 1021.68 1021.82 1021.93 1022.04 1022.15 1022.28 1022.44 1022.63 1022.84 1023.05 1023.26 1023.44 1023.58 1023.67 1023.70 1023.68 1023.62
Thickness
5764 5766 5763 5764 5765 5766 5767 5768 5769 5770 5771 5772 5772 5773 5773 5774 5774 5774 5774 5773 5773 5773 5773 5773 5773 5773 5772 5772 5772 5772 5771 5771 5771 5771 5770 5770 5770 5770 5770 5770 5771 5773 5770
5764 5764 5761 5762 5763 5764 5765 5766 5767 5768 5768 5769 5770 5770 5770 5771 5771 5771 5770 5770 5770 5770 5770 5770 5770 5770 5769 5769 5769 5769 5768 5768 5768 5768 5768 5768 5768 5767 5767 5767 5768 5769 5768
5763 5762 5760 5760 5761 5761 5762 5763 5764 5765 5766 5766 5767 5767 5767 5768 5768 5767 5767 5767 5767 5767 5766 5766 5766 5766 5766 5766 5766 5765 5765 5765 5765 5766 5766 5768 5767 5765 5765 5765 5765 5765 5765
5761 5760 5759 5757 5758 5758 5759 5760 5761 5762 5763 5763 5763 5764 5764 5764 5764 5764 5764 5764 5764 5764 5763 5763 5763 5763 5763 5763 5762 5762 5762 5762 5762 5763 5765 5766 5765 5763 5762 5761 5761 5762 5762
5758 5757 5755 5754 5754 5755 5756 5757 5757 5758 5759 5759 5760 5760 5760 5760 5760 5761 5760 5761 5760 5760 5760 5760 5759 5760 5759 5759 5759 5758 5758 5758 5759 5761 5762 5761 5761 5759 5758 5758 5758 5758 5758
5755 5754 5752 5750 5750 5751 5752 5753 5753 5754 5754 5755 5755 5755 5756 5756 5756 5756 5757 5757 5756 5756 5756 5756 5756 5756 5755 5755 5755 5754 5754 5754 5756 5757 5757 5757 5757 5755 5755 5754 5754 5754 5754
5752 5751 5749 5746 5746 5747 5747 5748 5749 5749 5749 5750 5751 5751 5751 5751 5752 5752 5752 5752 5752 5752 5752 5752 5751 5751 5751 5751 5751 5750 5750 5751 5754 5753 5753 5753 5752 5750 5750 5750 5750 5750 5750
5747 5746 5745 5742 5742 5742 5743 5743 5744 5744 5745 5745 5745 5746 5746 5746 5747 5747 5747 5747 5747 5747 5747 5747 5747 5747 5747 5747 5747 5747 5746 5748 5750 5751 5750 5749 5746 5746 5745 5746 5745 5745 5746
5743 5743 5742 5742 5740 5739 5738 5738 5739 5739 5740 5740 5740 5740 5741 5741 5742 5742 5742 5742 5743 5743 5743 5742 5742 5742 5742 5742 5742 5742 5742 5743 5746 5746 5746 5744 5741 5741 5741 5741 5741 5741 5741
5739 5738 5738 5739 5738 5738 5737 5734 5734 5735 5735 5735 5735 5735 5736 5737 5738 5738 5738 5737 5738 5738 5738 5737 5737 5737 5737 5737 5737 5737 5738 5740 5741 5741 5740 5738 5737 5737 5736 5736 5736 5736 5736
5733 5734 5735 5735 5734 5734 5733 5731 5731 5731 5730 5732 5732 5731 5733 5736 5736 5735 5733 5732 5733 5733 5733 5733 5732 5733 5733 5733 5733 5733 5735 5737 5736 5735 5733 5732 5732 5732 5731 5731 5731 5730 5731
5728 5729 5731 5731 5730 5730 5729 5728 5729 5729 5728 5730 5730 5730 5731 5732 5731 5730 5727 5727 5728 5728 5728 5728 5728 5729 5731 5732 5730 5730 5731 5732 5731 5729 5727 5726 5726 5726 5726 5725 5725 5725 5725
5726 5725 5726 5726 5726 5726 5725 5724 5724 5724 5724 5725 5725 5726 5726 5726 5727 5726 5726 5726 5725 5725 5726 5725 5727 5727 5728 5727 5727 5727 5726 5727 5726 5723 5720 5719 5719 5720 5719 5719 5719 5719 5719
5722 5721 5722 5722 5722 5722 5722 5720 5720 5720 5720 5720 5719 5720 5721 5721 5722 5722 5722 5721 5721 5721 5721 5721 5721 5722 5722 5722 5722 5722 5722 5721 5720 5717 5713 5712 5712 5713 5713 5713 5713 5713 5713
5718 5717 5717 5717 5718 5718 5717 5716 5716 5715 5715 5715 5713 5714 5715 5716 5717 5717 5717 5715 5716 5715 5716 5715 5716 5716 5716 5715 5715 5715 5715 5715 5713 5711 5708 5706 5705 5706 5706 5706 5706 5706 5707
5715 5714 5714 5714 5713 5713 5713 5712 5711 5710 5708 5709 5708 5708 5709 5710 5710 5711 5711 5710 5710 5710 5710 5710 5710 5710 5709 5708 5707 5706 5707 5707 5706 5704 5702 5700 5698 5698 5698 5699 5699 5698 5699
5711 5711 5710 5709 5709 5709 5708 5707 5706 5705 5705 5703 5702 5703 5704 5703 5704 5704 5705 5704 5704 5704 5705 5704 5704 5704 5703 5702 5700 5699 5699 5699 5698 5698 5697 5695 5693 5691 5690 5690 5691 5691 5692
5708 5707 5706 5705 5704 5704 5703 5701 5700 5700 5699 5698 5697 5698 5699 5699 5699 5698 5698 5698 5698 5698 5698 5697 5697 5697 5696 5695 5694 5692 5691 5690 5691 5690 5690 5688 5687 5686 5684 5683 5683 5683 5684
5705 5704 5702 5701 5700 5698 5697 5695 5694 5694 5693 5693 5692 5692 5693 5693 5693 5693 5692 5692 5692 5692 5692 5691 5690 5690 5689 5687 5686 5685 5685 5684 5683 5682 5682 5681 5680 5678 5678 5676 5675 5675 5676
5701 5701 5699 5697 5695 5693 5691 5691 5689 5688 5688 5687 5687 5686 5686 5686 5687 5687 5686 5686 5686 5685 5685 5684 5683 5682 5681 5681 5681 5679 5678 5677 5676 5674 5673 5672 5672 5671 5670 5670 5669 5669 5668
5697 5696 5694 5692 5690 5688 5687 5685 5684 5682 5682 5682 5681 5681 5680 5680 5680 5680 5680 5680 5679 5679 5678 5678 5677 5675 5675 5676 5675 5672 5671 5671 5669 5667 5665 5665 5664 5663 5663 5662 5661 5662 5662
5693 5691 5689 5688 5686 5684 5682 5681 5679 5677 5676 5675 5674 5674 5674 5674 5674 5674 5675 5674 5673 5671 5671 5671 5669 5669 5668 5669 5668 5667 5664 5663 5661 5660 5658 5657 5657 5656 5655 5655 5654 5654 5654
5688 5687 5686 5685 5683 5680 5677 5676 5673 5672 5671 5670 5669 5669 5668 5668 5668 5668 5668 5667 5666 5667 5665 5664 5664 5662 5662 5662 5662 5661 5658 5657 5654 5653 5652 5651 5649 5648 5648 5647 5647 5647 5647
5684 5684 5683 5681 5679 5676 5674 5671 5670 5667 5665 5665 5664 5663 5663 5662 5662 5662 5662 5661 5661 5660 5659 5659 5658 5657 5656 5656 5655 5654 5654 5653 5650 5647 5646 5645 5643 5642 5641 5640 5639 5639 5638
5681 5680 5679 5677 5674 5672 5670 5667 5665 5663 5662 5660 5659 5658 5658 5657 5657 5656 5656 5655 5655 5653 5653 5652 5651 5651 5651 5650 5648 5648 5647 5646 5648 5645 5641 5639 5638 5636 5634 5633 5632 5631 5630
5677 5675 5673 5671 5668 5666 5665 5663 5661 5659 5656 5655 5653 5652 5652 5652 5651 5651 5650 5650 5648 5647 5646 5645 5645 5644 5644 5643 5643 5642 5642 5641 5639 5638 5636 5634 5632 5630 5628 5627 5626 5624 5623